Weather History for Sanford, NC

Change the Weather History Date:

Sunday, July 21, 2013

  Actual Average (KRDU) Record (KRDU)
Temperature  
Mean Temperature 79 °F 80 °F  
Max Temperature 88 °F 90 °F 102 °F (1952)
Min Temperature 70 °F 70 °F 59 °F (2001)
Degree Days  
Heating Degree Days 0 0  
Month to date heating degree days 0  
Since 1 June heating degree days 4  
Since 1 July heating degree days 0  
Cooling Degree Days 14 15  
Month to date cooling degree days 315  
Year to date cooling degree days 871  
Since 1 June cooling degree days 662  
Growing Degree Days 29 (Base 50)    
Moisture  
Dew Point 72 °F    
Average Humidity 82    
Maximum Humidity 96    
Minimum Humidity 56    
Precipitation  
Precipitation 0.41 in 0.16 in 2.72 in (1905)
Month to date precipitation 3.14  
Year to date precipitation 23.69  
Sea Level Pressure  
Sea Level Pressure 29.97 in    
Wind  
Wind Speed 4 mph (SSW)    
Max Wind Speed 17 mph    
Max Gust Speed 22 mph    
Visibility 9 miles    
Events Rain    
T = Trace of Precipitation, MM = Missing Value Source: NWS Daily Summary

Daily Weather History Graph

Daily Weather History Graph

Search for Another Location

Airport:

Trip Planner

Search our weather history database for the weather conditions in past years. The results will help you decide how hot, cold, wet, or windy it might be!

Date:

Astronomy

Jul. 21, 2013 Rise Set
Actual Time 6:16 AM EDT 8:28 PM EDT
Civil Twilight 5:47 AM EDT 8:57 PM EDT
Nautical Twilight 5:12 AM EDT 9:32 PM EDT
Astronomical Twilight 4:34 AM EDT 10:10 PM EDT
Moon 7:26 PM EDT (7/21) 4:59 AM EDT (7/21)
Length of Visible Light 15h 09m
Length of Day
14h 12m
Waxing Gibbous, 98% of the Moon is Illuminated
Jul 21
Waxing Gibbous
Jul 22
Full
Jul 29
Last Quarter
Aug 6
New
Aug 14
First Quarter

Hourly Weather History & Observations

Time (EDT) Temp. Heat Index Dew Point Humidity Pressure Visibility Wind Dir Wind Speed Gust Speed Precip Events Conditions
12:15 AM 76.8 °F - 71.2 °F 83% 30.01 in 10.0 mi South 6.9 mph - N/A   Scattered Clouds
12:35 AM 76.3 °F - 71.2 °F 84% 30.01 in 10.0 mi SSW 6.9 mph - N/A   Scattered Clouds
12:55 AM 76.1 °F - 71.1 °F 84% 30.01 in 10.0 mi South 4.6 mph - N/A   Scattered Clouds
1:15 AM 75.7 °F - 70.7 °F 84% 30.00 in 10.0 mi South 4.6 mph - N/A   Scattered Clouds
1:35 AM 75.2 °F - 70.5 °F 85% 29.99 in 10.0 mi SSW 4.6 mph - N/A   Clear
1:55 AM 74.7 °F - 70.2 °F 86% 29.98 in 10.0 mi South 6.9 mph - N/A   Clear
2:15 AM 74.5 °F - 70.0 °F 86% 29.98 in 10.0 mi SSW 6.9 mph - N/A   Clear
2:35 AM 74.7 °F - 69.8 °F 85% 29.98 in 10.0 mi SW 5.8 mph - N/A   Clear
2:55 AM 73.8 °F - 69.8 °F 87% 29.97 in 10.0 mi South 5.8 mph - N/A   Clear
3:15 AM 73.4 °F - 69.8 °F 88% 29.97 in 10.0 mi South 3.5 mph - N/A   Clear
3:35 AM 72.9 °F - 69.8 °F 90% 29.97 in 10.0 mi SSW 3.5 mph - N/A   Clear
3:55 AM 72.9 °F - 70.0 °F 91% 29.97 in 10.0 mi Calm Calm - N/A   Scattered Clouds
4:15 AM 72.0 °F - 69.6 °F 92% 29.96 in 10.0 mi Calm Calm - N/A   Scattered Clouds
4:35 AM 71.8 °F - 69.8 °F 93% 29.97 in 10.0 mi Calm Calm - N/A   Scattered Clouds
4:55 AM 71.6 °F - 69.8 °F 94% 29.97 in 10.0 mi Calm Calm - N/A   Scattered Clouds
5:15 AM 70.7 °F - 69.1 °F 95% 29.98 in 7.0 mi Calm Calm - N/A   Scattered Clouds
5:35 AM 71.6 °F - 70.2 °F 95% 29.97 in 10.0 mi Calm Calm - N/A   Mostly Cloudy
5:55 AM 72.7 °F - 71.1 °F 95% 29.97 in 10.0 mi South 3.5 mph - N/A   Overcast
6:15 AM 73.2 °F - 71.2 °F 93% 29.98 in 10.0 mi SSW 3.5 mph - N/A   Overcast
6:35 AM 73.4 °F - 71.2 °F 93% 29.98 in 10.0 mi Calm Calm - N/A   Overcast
6:55 AM 73.4 °F - 71.1 °F 92% 29.98 in 10.0 mi Calm Calm - N/A   Overcast
7:15 AM 73.2 °F - 71.2 °F 93% 29.99 in 10.0 mi Calm Calm - N/A   Overcast
7:35 AM 73.4 °F - 71.2 °F 93% 29.99 in 10.0 mi SE 3.5 mph - N/A   Overcast
7:55 AM 74.3 °F - 71.6 °F 91% 29.99 in 10.0 mi South 3.5 mph - N/A   Overcast
8:15 AM 74.8 °F - 71.8 °F 90% 30.00 in 10.0 mi South 4.6 mph - N/A   Overcast
8:35 AM 75.2 °F - 72.0 °F 90% 30.00 in 10.0 mi South 4.6 mph - N/A   Overcast
8:55 AM 75.9 °F - 72.0 °F 87% 30.00 in 10.0 mi SSW 4.6 mph - N/A   Overcast
9:15 AM 76.3 °F - 72.0 °F 86% 30.01 in 10.0 mi SW 5.8 mph - N/A   Overcast
9:35 AM 77.0 °F - 71.6 °F 83% 30.01 in 10.0 mi SW 6.9 mph - N/A   Overcast
9:55 AM 77.9 °F - 71.8 °F 81% 30.00 in 10.0 mi SW 4.6 mph - N/A   Overcast
10:15 AM 78.1 °F - 71.6 °F 80% 30.01 in 10.0 mi SSW 5.8 mph - N/A   Overcast
10:35 AM 78.3 °F - 72.0 °F 81% 30.01 in 10.0 mi SW 8.1 mph - N/A   Overcast
10:55 AM 79.0 °F - 72.0 °F 79% 30.01 in 10.0 mi SSW 5.8 mph - N/A   Overcast
11:15 AM 79.7 °F - 72.0 °F 77% 30.01 in 10.0 mi SSW 4.6 mph - N/A   Overcast
11:35 AM 79.7 °F - 71.6 °F 76% 30.01 in 10.0 mi SW 5.8 mph - N/A   Overcast
11:55 AM 79.2 °F - 71.8 °F 78% 30.01 in 10.0 mi SW 5.8 mph - N/A   Overcast
12:15 PM 79.3 °F - 72.3 °F 79% 30.01 in 10.0 mi WSW 3.5 mph - N/A   Overcast
12:35 PM 81.1 °F 85.6 °F 72.0 °F 74% 30.01 in 10.0 mi WSW 6.9 mph - N/A   Overcast
12:55 PM 80.6 °F 84.9 °F 72.5 °F 76% 30.01 in 10.0 mi West 4.6 mph - N/A   Overcast
1:15 PM 81.7 °F 86.7 °F 72.7 °F 74% 30.00 in 10.0 mi WSW 4.6 mph - N/A   Overcast
2:15 PM 85.1 °F 91.1 °F 72.1 °F 65% 29.97 in 10.0 mi SSW 4.6 mph - N/A   Mostly Cloudy
2:35 PM 85.6 °F 91.8 °F 72.1 °F 64% 29.96 in 10.0 mi SSW 3.5 mph - N/A   Mostly Cloudy
2:55 PM 86.9 °F 93.3 °F 72.0 °F 61% 29.95 in 10.0 mi SSW 8.1 mph - N/A   Scattered Clouds
3:15 PM 87.3 °F 93.2 °F 71.4 °F 59% 29.94 in 10.0 mi SW 4.6 mph - N/A   Clear
3:35 PM 87.3 °F 93.2 °F 71.4 °F 59% 29.93 in 10.0 mi SSW 6.9 mph - N/A   Mostly Cloudy
3:55 PM 87.8 °F 93.8 °F 71.6 °F 58% 29.92 in 10.0 mi South 6.9 mph - N/A   Scattered Clouds
4:15 PM 88.9 °F 96.1 °F 72.5 °F 58% 29.92 in 10.0 mi SSE 5.8 mph - N/A   Clear
4:35 PM 88.3 °F 95.0 °F 72.0 °F 58% 29.91 in 10.0 mi South 5.8 mph - N/A   Clear
4:55 PM 88.9 °F 95.1 °F 71.2 °F 56% 29.92 in 10.0 mi SSE 4.6 mph - N/A   Scattered Clouds
5:15 PM 88.9 °F 95.1 °F 71.6 °F 56% 29.92 in 10.0 mi SSW 4.6 mph - N/A   Clear
5:35 PM 88.3 °F 95.0 °F 71.8 °F 58% 29.92 in 10.0 mi South 3.5 mph - N/A   Clear
5:55 PM 88.0 °F 96.5 °F 73.8 °F 63% 29.92 in 10.0 mi Calm Calm - N/A   Clear
6:15 PM 87.3 °F 94.5 °F 72.9 °F 62% 29.92 in 10.0 mi Calm Calm - N/A   Scattered Clouds
6:35 PM 84.2 °F 93.0 °F 75.9 °F 76% 29.92 in 10.0 mi Calm Calm - N/A   Clear
6:55 PM 83.8 °F 91.4 °F 74.7 °F 74% 29.92 in 10.0 mi NNW 17.3 mph 20.7 mph N/A   Unknown
7:15 PM 79.9 °F - 70.3 °F 73% 29.92 in 10.0 mi NNW 11.5 mph - N/A   Mostly Cloudy
7:35 PM 77.5 °F - 72.5 °F 84% 29.94 in 1.8 mi WNW 13.8 mph 21.9 mph 0.15 in Rain Heavy Rain
7:55 PM 75.7 °F - 72.5 °F 90% 29.96 in 4.0 mi SSW 6.9 mph - 0.22 in Rain Heavy Rain
8:15 PM 74.8 °F - 72.5 °F 92% 29.96 in 5.0 mi WSW 8.1 mph - 0.15 in Rain Heavy Rain
8:35 PM 73.9 °F - 71.8 °F 93% 29.97 in 7.0 mi SSE 5.8 mph - 0.19 in Rain Light Rain
8:55 PM 73.6 °F - 71.6 °F 93% 29.97 in 10.0 mi SSW 3.5 mph - 0.19 in Rain Light Rain
9:15 PM 73.4 °F - 71.6 °F 94% 29.97 in 10.0 mi SSE 3.5 mph - N/A   Scattered Clouds
9:35 PM 73.8 °F - 72.1 °F 95% 29.96 in 10.0 mi Calm Calm - N/A   Clear
9:55 PM 73.4 °F - 71.8 °F 95% 29.97 in 7.0 mi Calm Calm - N/A   Clear
10:15 PM 73.4 °F - 71.6 °F 94% 29.97 in 4.0 mi Calm Calm - N/A   Clear
10:35 PM 73.6 °F - 72.3 °F 96% 29.97 in 5.0 mi Calm Calm - N/A   Clear
10:55 PM 73.4 °F - 72.3 °F 96% 29.98 in 5.0 mi Calm Calm - N/A   Clear
11:15 PM 73.2 °F - 72.1 °F 96% 29.97 in 4.0 mi Calm Calm - N/A Rain Light Rain
11:35 PM 73.0 °F - 72.0 °F 96% 29.97 in 4.0 mi Calm Calm - N/A Rain Light Rain
11:55 PM 73.0 °F - 72.0 °F 96% 29.96 in 3.0 mi Calm Calm - N/A Rain Light Rain